Location: Newark
(47.9297°N, 19.1367°E)
Time: 22:05:56
(UTC+00:00)

ISS - Pass Details

Date: 25 September 2020
Orbit: 417 x 420 km, 51.6° (Epoch: 23 October)

Event Time Altitude Azimuth Distance (km) Brightness Sun altitude
Rises 15:49:09 0° 231° (SW) 2,355 1.2 6.7°
Reaches altitude 10° 15:51:16 10° 226° (SW) 1,495 0.1 6.4°
Drops below altitude 10° 15:57:50 10° 72° (ENE) 1,504 -1.6 5.3°
Enters shadow 16:01:26 -5° 66° (ENE) 2,980 -0.1 4.7°
Exits shadow 16:36:42 -78° 68° (ENE) 12,904 3.6 -1.2°
Maximum altitude 17:31:23 50° 349° (NNW) 545 -3.1 -10.3°
